Location: Huesca
(42.1318°N, 0.4078°W)
Time: 20:48:43
(UTC+02:00)

DIWATA 2B (PO-101) - Pass Details

Date: 02 May 2024
Orbit: 575 x 589 km, 98.1° (Epoch: 20 May)

Event Time Altitude Azimuth Distance (km) Brightness Sun altitude
Rises 04:27:34 0° 132° (SE) 2,810 ? -22.9°
Reaches altitude 10° 04:30:06 10° 117° (ESE) 1,913 ? -22.6°
Maximum altitude 04:33:17 22° 67° (ENE) 1,308 ? -22.3°
Drops below altitude 10° 04:36:29 10° 16° (NNE) 1,919 ? -21.9°
Sets 04:39:01 0° 1° (N) 2,822 ? -21.6°
